Track ONEWEB-0436 now! 10-day predictions ONEWEB-0436 is classified as:
1 51633U 22012M 22223.91667824 -.00031747 00000-0 -29946-2 0 9995 2 51633 87.1837 296.4630 0001948 136.2510 344.0566 14.94067498 28587